一网星座-0110星 (ONEWEB-0110 )

导读

ONEWEB-0110是英国OneWeb公司一网星座项目中的低轨通信卫星,于2020年12月18日发射,是该项目一期组网卫星之一。 卫星重约147.5公斤,配备Ku/Ka波段天线,通信能力约7.5Gbps,设计寿命5年,运行在近地轨道。它为OneWeb星座提供全球高速卫星互联网覆盖,助力偏远地区网络连接,可支持海空移动平台通信,也具备潜在军事应用价值。

Basic Information
目录编号:
47260
目录名称:
ONEWEB-0110
国际标识:
2020-100C
轨道中心:
EARTH
卫星名称:
一网星座-0110星
卫星全名:
一网星座-0110星 (ONEWEB-0110 )
卫星状态:
在轨 (已飞行2097 天)
发射日期:
2020-12-18 UTC
国别 :
英国 (GB)
星等 :
--
This satellite is enrolled in the Space Conjunction Data Service (SCDS) and the current flight risk assessment level is: No High Risk
Orbit Information
数据来源 国际轨道数据 AOE轨道数据
星历时间 2026-09-15T20:15:16+0800
9小时前
查看轨道信息
2026-09-14T01:00:00+0800
2天前
查看轨道信息
半长轴 7591.864km 7591.874km
偏心率 0.0002041 0.0001826
轨道倾角 87.899° 87.898°
近地点辐角 91.212° 91.704°
升交点赤经 332.715° 333.072°
平近点角 268.925° 37.962°
近地点 1212.177km 1212.35km
远地点 1215.277km 1215.124km
周期 109.719分钟 109.719分钟
每日圈数 13.124422 13.124397
Detailed Information
平衡模式:
三轴稳定
覆盖范围:
全球
运营商:
一网卫星公司
运营商所在国:
英国
制造商(研发单位):
一网卫星公司
制造商所在国:
英国
使用方式:
暂无
Satellite Introduction
OneWeb卫星网络由648颗重约125公斤的微型卫星组成,运行在1200公里的轨道上。 每颗卫星都能够提供至少每秒8千兆位的吞吐量,以使用其高吞吐量的Ku频段有效载荷为家庭和移动平台提供互联网接入。该卫星仍在工作。
2D Orbit Map
3D Orbit Map
Orbit Altitude Analysis Chart
Orbit Inclination Analysis Chart
Orbit Comprehensive Analysis Chart
View Comprehensive Chart
Miss Distance Evolution Trend with All Objects Subscribe to Flight Safety Assessment
Collision Probability Evolution Trend with All Objects Subscribe to Flight Safety Assessment